| time (UTC) | temp F | wind direction | speed knots | gust knots | rain 1hr in | rain 24hr in | rain mn in | humidity % | barometer mb |
| 20260508075039 | 48 | 22 | 0.0 | 0.9 | 0.00 | 0.00 | 0.00 | 30 | 1016.3 |
| 20260508074542 | 47 | 0 | 0.0 | 0.9 | 0.00 | 0.00 | 0.00 | 30 | 1016.5 |
| 20260508074035 | 47 | 0 | 0.0 | 0.0 | 0.00 | 0.00 | 0.00 | 30 | 1016.6 |
| 20260508073535 | 47 | 0 | 0.0 | 0.0 | 0.00 | 0.00 | 0.00 | 30 | 1016.6 |
| 20260508073044 | 47 | 0 | 0.0 | 0.9 | 0.00 | 0.00 | 0.00 | 29 | 1016.6 |
| 20260508072535 | 47 | 0 | 0.0 | 0.9 | 0.00 | 0.00 | 0.00 | 29 | 1016.7 |
| 20260508072035 | 47 | 0 | 0.0 | 0.9 | 0.00 | 0.00 | 0.00 | 30 | 1016.8 |
| 20260508071546 | 47 | 0 | 0.0 | 0.9 | 0.00 | 0.00 | 0.00 | 30 | 1016.8 |
| 20260508071035 | 47 | 0 | 0.0 | 0.0 | 0.00 | 0.00 | 0.00 | 31 | 1016.8 |
| 20260508070535 | 48 | 0 | 0.0 | 0.0 | 0.00 | 0.00 | 0.00 | 29 | 1016.8 |
| 20260508070044 | 48 | 0 | 0.0 | 0.0 | 0.00 | 0.00 | 0.00 | 28 | 1016.8 |
| 20260508065536 | 48 | 0 | 0.0 | 0.0 | 0.00 | 0.00 | 0.00 | 27 | 1016.9 |
| 20260508065032 | 48 | 0 | 0.0 | 0.0 | 0.00 | 0.00 | 0.00 | 28 | 1017.0 |
| 20260508064543 | 49 | 0 | 0.0 | 0.0 | 0.00 | 0.00 | 0.00 | 27 | 1017.0 |
| 20260508064035 | 49 | 0 | 0.0 | 0.0 | 0.00 | 0.00 | 0.00 | 27 | 1017.0 |
| 20260508063534 | 50 | 0 | 0.0 | 0.0 | 0.00 | 0.00 | 0.00 | 26 | 1016.8 |
| 20260508063101 | 49 | 0 | 0.0 | 0.0 | 0.00 | 0.00 | 0.00 | 26 | 1016.7 |
| 20260508062533 | 49 | 82 | 0.0 | 0.0 | 0.00 | 0.00 | 0.00 | 26 | 1016.7 |
| 20260508062033 | 50 | 0 | 0.0 | 0.0 | 0.00 | 0.00 | 0.00 | 26 | 1016.7 |
| 20260508061556 | 50 | 0 | 0.0 | 0.9 | 0.00 | 0.00 | 0.00 | 25 | 1016.7 |
| 20260508061034 | 50 | 0 | 0.0 | 0.9 | 0.00 | 0.00 | 0.00 | 24 | 1016.8 |
| 20260508060534 | 50 | 0 | 0.0 | 0.9 | 0.00 | 0.00 | 0.00 | 25 | 1016.8 |
| 20260508060055 | 50 | 0 | 0.0 | 0.9 | 0.00 | 0.00 | 0.00 | 26 | 1016.7 |
| 20260508055535 | 50 | 0 | 0.0 | 0.0 | 0.00 | 0.00 | 0.00 | 27 | 1016.7 |
| 20260508055039 | 50 | 0 | 0.0 | 0.0 | 0.00 | 0.00 | 0.00 | 26 | 1016.7 |
| 20260508054545 | 51 | 0 | 0.0 | 0.0 | 0.00 | 0.00 | 0.00 | 25 | 1016.6 |
| 20260508054034 | 51 | 0 | 0.0 | 0.0 | 0.00 | 0.00 | 0.00 | 24 | 1016.6 |
| 20260508053534 | 51 | 0 | 0.0 | 0.9 | 0.00 | 0.00 | 0.00 | 24 | 1016.7 |
| 20260508053046 | 52 | 0 | 0.0 | 0.9 | 0.00 | 0.00 | 0.00 | 24 | 1016.5 |
| 20260508052534 | 52 | 280 | 0.0 | 0.9 | 0.00 | 0.00 | 0.00 | 24 | 1016.6 |
| 20260508052034 | 51 | 281 | 0.0 | 0.9 | 0.00 | 0.00 | 0.00 | 23 | 1016.7 |
| 20260508051542 | 51 | 0 | 0.0 | 0.9 | 0.00 | 0.00 | 0.00 | 24 | 1016.6 |
| 20260508051038 | 51 | 0 | 0.0 | 0.9 | 0.00 | 0.00 | 0.00 | 24 | 1016.7 |
| 20260508050535 | 51 | 0 | 0.0 | 0.0 | 0.00 | 0.00 | 0.00 | 24 | 1016.7 |
| 20260508050052 | 51 | 0 | 0.0 | 0.0 | 0.00 | 0.00 | 0.00 | 24 | 1016.6 |
| 20260508045535 | 51 | 0 | 0.0 | 0.0 | 0.00 | 0.00 | 0.00 | 24 | 1016.7 |
| 20260508045033 | 51 | 0 | 0.0 | 0.0 | 0.00 | 0.00 | 0.00 | 24 | 1016.7 |
| 20260508044546 | 51 | 0 | 0.0 | 0.0 | 0.00 | 0.00 | 0.00 | 24 | 1016.6 |
| 20260508044049 | 52 | 0 | 0.0 | 0.0 | 0.00 | 0.00 | 0.00 | 23 | 1016.4 |
| 20260508043535 | 52 | 0 | 0.0 | 0.0 | 0.00 | 0.00 | 0.00 | 23 | 1016.5 |
| 20260508043042 | 52 | 0 | 0.0 | 0.0 | 0.00 | 0.00 | 0.00 | 22 | 1016.4 |
| 20260508042533 | 53 | 0 | 0.0 | 0.0 | 0.00 | 0.00 | 0.00 | 22 | 1016.5 |
| 20260508042030 | 54 | 0 | 0.0 | 0.0 | 0.00 | 0.00 | 0.00 | 22 | 1016.4 |
| 20260508041544 | 54 | 0 | 0.0 | 0.0 | 0.00 | 0.00 | 0.00 | 21 | 1016.4 |
| 20260508041030 | 55 | 0 | 0.0 | 0.0 | 0.00 | 0.00 | 0.00 | 21 | 1016.4 |
| 20260508040531 | 56 | 0 | 0.0 | 0.0 | 0.00 | 0.00 | 0.00 | 19 | 1016.3 |
| 20260508040053 | 57 | 0 | 0.0 | 0.0 | 0.00 | 0.00 | 0.00 | 18 | 1016.4 |
| 20260508035532 | 58 | 0 | 0.0 | 0.0 | 0.00 | 0.00 | 0.00 | 17 | 1016.3 |
| 20260508035036 | 60 | 0 | 0.0 | 0.0 | 0.00 | 0.00 | 0.00 | 16 | 1016.2 |
| 20260508034547 | 61 | 0 | 0.0 | 0.0 | 0.00 | 0.00 | 0.00 | 15 | 1016.2 |
| 20260508034034 | 61 | 0 | 0.0 | 0.9 | 0.00 | 0.00 | 0.00 | 15 | 1016.2 |
| 20260508033530 | 62 | 0 | 0.0 | 0.9 | 0.00 | 0.00 | 0.00 | 13 | 1016.1 |
| 20260508033048 | 63 | 0 | 0.0 | 0.9 | 0.00 | 0.00 | 0.00 | 13 | 1016.0 |
| 20260508032534 | 63 | 0 | 0.0 | 0.9 | 0.00 | 0.00 | 0.00 | 13 | 1015.8 |
| 20260508032035 | 63 | 278 | 0.0 | 0.9 | 0.00 | 0.00 | 0.00 | 12 | 1015.8 |
| 20260508031543 | 64 | 0 | 0.0 | 0.9 | 0.00 | 0.00 | 0.00 | 12 | 1015.7 |
| 20260508031031 | 65 | 0 | 0.0 | 0.9 | 0.00 | 0.00 | 0.00 | 11 | 1015.6 |
| 20260508030533 | 65 | 293 | 0.0 | 1.7 | 0.00 | 0.00 | 0.00 | 11 | 1015.5 |
| 20260508030043 | 65 | 263 | 0.0 | 1.7 | 0.00 | 0.00 | 0.00 | 11 | 1015.5 |
| 20260508025533 | 66 | 0 | 0.0 | 1.7 | 0.00 | 0.00 | 0.00 | 11 | 1015.4 |
| 20260508025030 | 66 | 0 | 0.0 | 1.7 | 0.00 | 0.00 | 0.00 | 10 | 1015.3 |
| 20260508024548 | 66 | 0 | 0.0 | 1.7 | 0.00 | 0.00 | 0.00 | 10 | 1015.3 |
| 20260508024030 | 67 | 0 | 0.0 | 1.7 | 0.00 | 0.00 | 0.00 | 10 | 1015.2 |
| 20260508023533 | 67 | 246 | 0.0 | 1.7 | 0.00 | 0.00 | 0.00 | 9 | 1015.1 |
| 20260508023045 | 67 | 273 | 0.0 | 1.7 | 0.00 | 0.00 | 0.00 | 9 | 1015.1 |
| 20260508022533 | 68 | 0 | 0.0 | 1.7 | 0.00 | 0.00 | 0.00 | 9 | 1015.1 |
| 20260508022034 | 68 | 264 | 0.0 | 1.7 | 0.00 | 0.00 | 0.00 | 9 | 1015.0 |
| 20260508021547 | 69 | 263 | 0.0 | 2.6 | 0.00 | 0.00 | 0.00 | 9 | 1014.9 |
| 20260508021033 | 69 | 261 | 0.0 | 4.3 | 0.00 | 0.00 | 0.00 | 8 | 1014.8 |
| 20260508020534 | 70 | 262 | 0.9 | 4.3 | 0.00 | 0.00 | 0.00 | 8 | 1014.8 |
| 20260508020044 | 70 | 263 | 0.0 | 2.6 | 0.00 | 0.00 | 0.00 | 8 | 1014.7 |
| 20260508015533 | 70 | 262 | 0.0 | 2.6 | 0.00 | 0.00 | 0.00 | 8 | 1014.7 |
| 20260508015031 | 71 | 335 | 0.9 | 2.6 | 0.00 | 0.00 | 0.00 | 8 | 1014.6 |
| 20260508014544 | 71 | 205 | 0.0 | 2.6 | 0.00 | 0.00 | 0.00 | 13 | 1014.6 |
| 20260508014036 | 72 | 129 | 0.0 | 2.6 | 0.00 | 0.00 | 0.00 | 13 | 1014.6 |
| 20260508013535 | 72 | 193 | 0.9 | 5.2 | 0.00 | 0.00 | 0.00 | 12 | 1014.4 |
| 20260508013046 | 73 | 161 | 0.9 | 5.2 | 0.00 | 0.00 | 0.00 | 12 | 1014.4 |
| 20260508012530 | 74 | 148 | 1.7 | 5.2 | 0.00 | 0.00 | 0.00 | 12 | 1014.2 |
| 20260508012034 | 75 | 198 | 0.9 | 3.5 | 0.00 | 0.00 | 0.00 | 12 | 1014.2 |
| 20260508011547 | 76 | 137 | 0.9 | 3.5 | 0.00 | 0.00 | 0.00 | 12 | 1014.2 |
| 20260508011031 | 76 | 242 | 0.9 | 4.3 | 0.00 | 0.00 | 0.00 | 12 | 1014.2 |
| 20260508010534 | 76 | 211 | 0.0 | 4.3 | 0.00 | 0.00 | 0.00 | 12 | 1014.1 |
| 20260508010049 | 76 | 172 | 0.9 | 5.2 | 0.00 | 0.00 | 0.00 | 12 | 1014.2 |
| 20260508005538 | 76 | 8 | 0.9 | 5.2 | 0.00 | 0.00 | 0.00 | 11 | 1014.0 |
| 20260508005035 | 77 | 200 | 2.6 | 5.2 | 0.00 | 0.00 | 0.00 | 11 | 1014.0 |
| 20260508004543 | 77 | 146 | 1.7 | 5.2 | 0.00 | 0.00 | 0.00 | 11 | 1014.0 |
| 20260508004034 | 77 | 181 | 1.7 | 5.2 | 0.00 | 0.00 | 0.00 | 11 | 1014.1 |
| 20260508003533 | 77 | 207 | 1.7 | 5.2 | 0.00 | 0.00 | 0.00 | 11 | 1014.1 |
| 20260508003043 | 77 | 314 | 1.7 | 5.2 | 0.00 | 0.00 | 0.00 | 11 | 1014.0 |
| 20260508002530 | 77 | 219 | 2.6 | 5.2 | 0.00 | 0.00 | 0.00 | 10 | 1014.1 |
| 20260508002030 | 77 | 119 | 1.7 | 5.2 | 0.00 | 0.00 | 0.00 | 10 | 1014.0 |
| 20260508001552 | 78 | 208 | 1.7 | 6.1 | 0.00 | 0.00 | 0.00 | 10 | 1014.0 |
| 20260508001030 | 78 | 224 | 1.7 | 7.0 | 0.00 | 0.00 | 0.00 | 10 | 1014.0 |
| 20260508000532 | 78 | 165 | 2.6 | 7.8 | 0.00 | 0.00 | 0.00 | 10 | 1014.0 |
| 20260508000042 | 77 | 76 | 2.6 | 7.8 | 0.00 | 0.00 | 0.00 | 10 | 1014.0 |
| 20260507235534 | 78 | 124 | 2.6 | 7.0 | 0.00 | 0.00 | 0.00 | 10 | 1014.0 |
| 20260507235037 | 78 | 156 | 1.7 | 7.0 | 0.00 | 0.00 | 0.00 | 10 | 1014.1 |
| 20260507234542 | 78 | 280 | 1.7 | 6.1 | 0.00 | 0.00 | 0.00 | 10 | 1014.1 |
| 20260507234030 | 78 | 179 | 2.6 | 6.1 | 0.00 | 0.00 | 0.00 | 9 | 1014.2 |
| 20260507233531 | 78 | 86 | 0.9 | 7.0 | 0.00 | 0.00 | 0.00 | 10 | 1014.2 |
| 20260507233048 | 78 | 235 | 3.5 | 7.0 | 0.00 | 0.00 | 0.00 | 10 | 1014.4 |
| 20260507232534 | 78 | 169 | 1.7 | 7.0 | 0.00 | 0.00 | 0.00 | 10 | 1014.4 |
| 20260507232033 | 78 | 168 | 1.7 | 7.0 | 0.00 | 0.00 | 0.00 | 10 | 1014.4 |
| 20260507231556 | 78 | 245 | 3.5 | 7.0 | 0.00 | 0.00 | 0.00 | 10 | 1014.5 |
| 20260507231031 | 78 | 66 | 2.6 | 7.0 | 0.00 | 0.00 | 0.00 | 10 | 1014.5 |
| 20260507230531 | 78 | 69 | 1.7 | 7.0 | 0.00 | 0.00 | 0.00 | 10 | 1014.5 |
| 20260507230050 | 78 | 129 | 1.7 | 6.1 | 0.00 | 0.00 | 0.00 | 9 | 1014.7 |
| 20260507225530 | 78 | 206 | 2.6 | 6.1 | 0.00 | 0.00 | 0.00 | 10 | 1014.8 |
| 20260507225034 | 78 | 243 | 2.6 | 7.0 | 0.00 | 0.00 | 0.00 | 10 | 1014.8 |
| 20260507224546 | 77 | 302 | 1.7 | 7.0 | 0.00 | 0.00 | 0.00 | 10 | 1014.8 |
| 20260507224034 | 77 | 197 | 2.6 | 7.0 | 0.00 | 0.00 | 0.00 | 10 | 1014.9 |
| 20260507223622 | 77 | 65 | 2.6 | 7.0 | 0.00 | 0.00 | 0.00 | 9 | 1015.0 |
| 20260507223045 | 78 | 144 | 1.7 | 7.0 | 0.00 | 0.00 | 0.00 | 10 | 1015.0 |
| 20260507222536 | 78 | 210 | 2.6 | 6.1 | 0.00 | 0.00 | 0.00 | 10 | 1015.1 |
| 20260507222030 | 77 | 158 | 2.6 | 5.2 | 0.00 | 0.00 | 0.00 | 10 | 1015.1 |
| 20260507221543 | 78 | 213 | 0.9 | 7.0 | 0.00 | 0.00 | 0.00 | 10 | 1015.3 |
| 20260507221030 | 78 | 255 | 1.7 | 7.0 | 0.00 | 0.00 | 0.00 | 10 | 1015.3 |
| 20260507220536 | 78 | 146 | 3.5 | 7.0 | 0.00 | 0.00 | 0.00 | 10 | 1015.3 |
| 20260507220045 | 77 | 163 | 0.9 | 6.1 | 0.00 | 0.00 | 0.00 | 12 | 1015.3 |
| 20260507215531 | 76 | 124 | 2.6 | 6.1 | 0.00 | 0.00 | 0.00 | 13 | 1015.6 |
| 20260507215034 | 76 | 195 | 1.7 | 5.2 | 0.00 | 0.00 | 0.00 | 13 | 1015.7 |
| 20260507214557 | 77 | 63 | 1.7 | 8.7 | 0.00 | 0.00 | 0.00 | 12 | 1016.0 |
| 20260507214032 | 77 | 256 | 2.6 | 8.7 | 0.00 | 0.00 | 0.00 | 13 | 1016.0 |
| 20260507213538 | 77 | 138 | 1.7 | 7.8 | 0.00 | 0.00 | 0.00 | 13 | 1016.0 |
| 20260507213052 | 76 | 240 | 2.6 | 8.7 | 0.00 | 0.00 | 0.00 | 14 | 1016.1 |
| 20260507212536 | 76 | 157 | 2.6 | 8.7 | 0.00 | 0.00 | 0.00 | 13 | 1016.2 |
| 20260507212037 | 74 | 118 | 3.5 | 8.7 | 0.00 | 0.00 | 0.00 | 16 | 1016.3 |
| 20260507211549 | 74 | 111 | 2.6 | 7.0 | 0.00 | 0.00 | 0.00 | 16 | 1016.5 |
| 20260507211034 | 74 | 58 | 2.6 | 7.0 | 0.00 | 0.00 | 0.00 | 15 | 1016.7 |
| 20260507210534 | 75 | 145 | 3.5 | 7.0 | 0.00 | 0.00 | 0.00 | 14 | 1016.8 |
| 20260507210047 | 76 | 136 | 1.7 | 5.2 | 0.00 | 0.00 | 0.00 | 15 | 1016.8 |
| 20260507205534 | 76 | 82 | 1.7 | 7.0 | 0.00 | 0.00 | 0.00 | 14 | 1017.1 |
| 20260507205034 | 76 | 122 | 1.7 | 7.0 | 0.00 | 0.00 | 0.00 | 15 | 1017.1 |
| 20260507204547 | 75 | 107 | 2.6 | 6.1 | 0.00 | 0.00 | 0.00 | 16 | 1017.2 |
| 20260507204036 | 74 | 30 | 1.7 | 4.3 | 0.00 | 0.00 | 0.00 | 16 | 1017.3 |
| 20260507203531 | 74 | 46 | 1.7 | 4.3 | 0.00 | 0.00 | 0.00 | 16 | 1017.4 |
| 20260507203100 | 74 | 85 | 1.7 | 6.1 | 0.00 | 0.00 | 0.00 | 15 | 1017.5 |
| 20260507202533 | 73 | 250 | 2.6 | 7.0 | 0.00 | 0.00 | 0.00 | 17 | 1017.5 |
| 20260507202033 | 73 | 178 | 2.6 | 7.0 | 0.00 | 0.00 | 0.00 | 17 | 1017.8 |
| 20260507201556 | 73 | 304 | 0.9 | 4.3 | 0.00 | 0.00 | 0.00 | 16 | 1017.8 |
| 20260507201032 | 72 | 258 | 0.9 | 4.3 | 0.00 | 0.00 | 0.00 | 17 | 1017.9 |
| 20260507200532 | 71 | 155 | 0.9 | 4.3 | 0.00 | 0.00 | 0.00 | 18 | 1018.0 |
| 20260507195534 | 74 | 243 | 1.7 | 5.2 | 0.00 | 0.00 | 0.00 | 16 | 1018.1 |
| 20260507195033 | 74 | 74 | 1.7 | 5.2 | 0.00 | 0.00 | 0.00 | 17 | 1018.1 |
| 20260507194543 | 74 | 221 | 1.7 | 4.3 | 0.00 | 0.00 | 0.00 | 18 | 1018.2 |
| 20260507194032 | 73 | 304 | 0.9 | 4.3 | 0.00 | 0.00 | 0.00 | 18 | 1018.4 |
| 20260507193533 | 73 | 162 | 1.7 | 4.3 | 0.00 | 0.00 | 0.00 | 17 | 1018.4 |
| 20260507193047 | 72 | 214 | 1.7 | 5.2 | 0.00 | 0.00 | 0.00 | 17 | 1018.5 |
| 20260507192531 | 72 | 252 | 0.9 | 5.2 | 0.00 | 0.00 | 0.00 | 17 | 1018.5 |
| 20260507192039 | 71 | 121 | 1.7 | 5.2 | 0.00 | 0.00 | 0.00 | 18 | 1018.7 |
| 20260507191542 | 71 | 216 | 2.6 | 9.6 | 0.00 | 0.00 | 0.00 | 19 | 1018.7 |
| 20260507191030 | 70 | 157 | 2.6 | 9.6 | 0.00 | 0.00 | 0.00 | 20 | 1018.8 |
| 20260507190536 | 70 | 300 | 1.7 | 5.2 | 0.00 | 0.00 | 0.00 | 20 | 1018.9 |
| 20260507190049 | 70 | 199 | 0.9 | 4.3 | 0.00 | 0.00 | 0.00 | 19 | 1018.9 |
| 20260507185536 | 68 | 149 | 1.7 | 4.3 | 0.00 | 0.00 | 0.00 | 21 | 1019.1 |
| 20260507185034 | 69 | 232 | 0.9 | 3.5 | 0.00 | 0.00 | 0.00 | 20 | 1019.3 |
| 20260507184553 | 68 | 200 | 0.9 | 3.5 | 0.00 | 0.00 | 0.00 | 22 | 1019.4 |
| 20260507184031 | 68 | 240 | 1.7 | 3.5 | 0.00 | 0.00 | 0.00 | 22 | 1019.6 |
| 20260507183534 | 66 | 263 | 0.9 | 2.6 | 0.00 | 0.00 | 0.00 | 23 | 1019.5 |
| 20260507183048 | 67 | 60 | 0.9 | 4.3 | 0.00 | 0.00 | 0.00 | 21 | 1019.6 |
| 20260507182531 | 67 | 273 | 1.7 | 4.3 | 0.00 | 0.00 | 0.00 | 23 | 1019.7 |
| 20260507182031 | 68 | 97 | 1.7 | 3.5 | 0.00 | 0.00 | 0.00 | 22 | 1019.8 |
| 20260507181543 | 67 | 288 | 0.0 | 2.6 | 0.00 | 0.00 | 0.00 | 22 | 1019.9 |
| 20260507181033 | 66 | 115 | 0.9 | 2.6 | 0.00 | 0.00 | 0.00 | 23 | 1019.9 |
| 20260507180537 | 64 | 248 | 0.9 | 4.3 | 0.00 | 0.00 | 0.00 | 25 | 1020.1 |
| 20260507180046 | 63 | 0 | 1.7 | 6.1 | 0.00 | 0.00 | 0.00 | 25 | 1020.2 |
| 20260507175537 | 63 | 223 | 1.7 | 6.1 | 0.00 | 0.00 | 0.00 | 24 | 1020.3 |
| 20260507175033 | 63 | 282 | 1.7 | 6.1 | 0.00 | 0.00 | 0.00 | 25 | 1020.4 |
| 20260507174549 | 61 | 0 | 1.7 | 5.2 | 0.00 | 0.00 | 0.00 | 28 | 1020.4 |
| 20260507174034 | 61 | 90 | 1.7 | 5.2 | 0.00 | 0.00 | 0.00 | 25 | 1020.6 |
| 20260507173535 | 61 | 334 | 1.7 | 4.3 | 0.00 | 0.00 | 0.00 | 27 | 1020.7 |
| 20260507173045 | 61 | 45 | 1.7 | 5.2 | 0.00 | 0.00 | 0.00 | 28 | 1020.8 |
| 20260507172534 | 61 | 295 | 0.0 | 5.2 | 0.00 | 0.00 | 0.00 | 30 | 1020.9 |
| 20260507172030 | 60 | 46 | 1.7 | 5.2 | 0.00 | 0.00 | 0.00 | 28 | 1021.0 |
| 20260507171544 | 60 | 275 | 0.9 | 3.5 | 0.00 | 0.00 | 0.00 | 29 | 1021.2 |
| 20260507171034 | 60 | 49 | 1.7 | 4.3 | 0.00 | 0.00 | 0.00 | 30 | 1021.3 |
| 20260507170535 | 60 | 64 | 0.9 | 5.2 | 0.00 | 0.00 | 0.00 | 31 | 1021.3 |
| 20260507170048 | 59 | 13 | 2.6 | 5.2 | 0.00 | 0.00 | 0.00 | 31 | 1021.4 |
| 20260507165534 | 58 | 15 | 2.6 | 5.2 | 0.00 | 0.00 | 0.00 | 31 | 1021.4 |
| 20260507165034 | 57 | 84 | 1.7 | 7.8 | 0.00 | 0.00 | 0.00 | 36 | 1021.3 |
| 20260507164556 | 57 | 344 | 2.6 | 7.8 | 0.00 | 0.00 | 0.00 | 35 | 1021.4 |
| 20260507164034 | 57 | 19 | 3.5 | 6.1 | 0.00 | 0.00 | 0.00 | 36 | 1021.5 |
| 20260507163534 | 57 | 293 | 2.6 | 6.1 | 0.00 | 0.00 | 0.00 | 37 | 1021.5 |
| 20260507163049 | 57 | 334 | 1.7 | 7.0 | 0.00 | 0.00 | 0.00 | 38 | 1021.7 |
| 20260507162532 | 56 | 55 | 2.6 | 7.8 | 0.00 | 0.00 | 0.00 | 39 | 1021.6 |
| 20260507162034 | 55 | 63 | 2.6 | 7.8 | 0.00 | 0.00 | 0.00 | 42 | 1021.7 |
| 20260507161551 | 55 | 23 | 2.6 | 7.8 | 0.00 | 0.00 | 0.00 | 41 | 1021.8 |
| 20260507161034 | 55 | 27 | 2.6 | 7.0 | 0.00 | 0.00 | 0.00 | 42 | 1021.9 |
| 20260507160533 | 54 | 20 | 1.7 | 7.0 | 0.00 | 0.00 | 0.00 | 44 | 1021.9 |
| 20260507160047 | 54 | 4 | 3.5 | 7.0 | 0.00 | 0.00 | 0.00 | 45 | 1021.9 |
| 20260507155531 | 54 | 274 | 2.6 | 6.1 | 0.00 | 0.00 | 0.00 | 46 | 1021.9 |
| 20260507155032 | 53 | 306 | 2.6 | 7.0 | 0.00 | 0.00 | 0.00 | 46 | 1021.9 |
| 20260507154551 | 53 | 23 | 2.6 | 7.0 | 0.00 | 0.00 | 0.00 | 47 | 1022.1 |
| 20260507154036 | 52 | 44 | 1.7 | 6.1 | 0.00 | 0.00 | 0.00 | 50 | 1022.0 |
| 20260507153534 | 52 | 339 | 1.7 | 7.0 | 0.00 | 0.00 | 0.00 | 50 | 1022.1 |
| 20260507153046 | 51 | 289 | 2.6 | 7.8 | 0.00 | 0.00 | 0.00 | 50 | 1022.1 |
| 20260507152534 | 51 | 12 | 5.2 | 7.8 | 0.00 | 0.00 | 0.00 | 50 | 1022.1 |
| 20260507152032 | 51 | 25 | 3.5 | 8.7 | 0.00 | 0.00 | 0.00 | 51 | 1022.2 |
| 20260507151547 | 50 | 328 | 4.3 | 8.7 | 0.00 | 0.00 | 0.00 | 52 | 1022.2 |
| 20260507151031 | 50 | 288 | 3.5 | 8.7 | 0.00 | 0.00 | 0.00 | 53 | 1022.1 |
| 20260507150532 | 50 | 18 | 3.5 | 8.7 | 0.00 | 0.00 | 0.00 | 53 | 1022.2 |
| 20260507150045 | 50 | 334 | 3.5 | 9.6 | 0.00 | 0.00 | 0.00 | 54 | 1022.2 |
| 20260507145534 | 49 | 307 | 3.5 | 9.6 | 0.00 | 0.00 | 0.00 | 54 | 1022.2 |
| 20260507145035 | 49 | 308 | 5.2 | 9.6 | 0.00 | 0.00 | 0.00 | 54 | 1022.3 |
| 20260507144543 | 49 | 205 | 4.3 | 9.6 | 0.00 | 0.00 | 0.00 | 57 | 1022.3 |
| 20260507144035 | 48 | 22 | 4.3 | 8.7 | 0.00 | 0.00 | 0.00 | 58 | 1022.3 |
| 20260507143535 | 48 | 1 | 4.3 | 8.7 | 0.00 | 0.00 | 0.00 | 58 | 1022.4 |
| 20260507143043 | 48 | 297 | 3.5 | 8.7 | 0.00 | 0.00 | 0.00 | 60 | 1022.4 |
| 20260507142532 | 47 | 65 | 3.5 | 8.7 | 0.00 | 0.00 | 0.00 | 60 | 1022.4 |
| 20260507142035 | 47 | 312 | 3.5 | 8.7 | 0.00 | 0.00 | 0.00 | 61 | 1022.4 |
| 20260507141542 | 47 | 352 | 3.5 | 10.4 | 0.00 | 0.00 | 0.00 | 61 | 1022.4 |
| 20260507141035 | 46 | 315 | 3.5 | 10.4 | 0.00 | 0.00 | 0.00 | 62 | 1022.3 |
| 20260507140535 | 46 | 30 | 4.3 | 9.6 | 0.00 | 0.00 | 0.00 | 63 | 1022.3 |
| 20260507140046 | 46 | 357 | 4.3 | 10.4 | 0.00 | 0.00 | 0.00 | 63 | 1022.4 |
| 20260507135534 | 45 | 46 | 5.2 | 11.3 | 0.00 | 0.00 | 0.00 | 64 | 1022.5 |
| 20260507135034 | 45 | 359 | 5.2 | 11.3 | 0.00 | 0.00 | 0.00 | 64 | 1022.6 |
| 20260507134543 | 45 | 10 | 4.3 | 9.6 | 0.00 | 0.00 | 0.00 | 65 | 1022.6 |
| 20260507134030 | 45 | 336 | 3.5 | 9.6 | 0.00 | 0.00 | 0.00 | 66 | 1022.5 |
| 20260507133534 | 45 | 342 | 3.5 | 9.6 | 0.00 | 0.00 | 0.00 | 65 | 1022.4 |
| 20260507133100 | 44 | 301 | 2.6 | 7.0 | 0.00 | 0.00 | 0.00 | 64 | 1022.4 |
| 20260507132536 | 44 | 293 | 2.6 | 7.0 | 0.00 | 0.00 | 0.00 | 65 | 1022.4 |
| 20260507132034 | 43 | 6 | 2.6 | 7.0 | 0.00 | 0.00 | 0.00 | 65 | 1022.3 |
| 20260507131550 | 43 | 49 | 2.6 | 7.8 | 0.00 | 0.00 | 0.00 | 66 | 1022.3 |
| 20260507131034 | 43 | 292 | 3.5 | 7.8 | 0.00 | 0.00 | 0.00 | 68 | 1022.3 |
| 20260507130535 | 42 | 314 | 3.5 | 7.8 | 0.00 | 0.00 | 0.00 | 68 | 1022.2 |
| 20260507130106 | 42 | 274 | 3.5 | 7.8 | 0.00 | 0.00 | 0.00 | 69 | 1022.3 |
| 20260507125535 | 41 | 304 | 3.5 | 9.6 | 0.00 | 0.00 | 0.00 | 70 | 1022.1 |
| 20260507125031 | 41 | 354 | 3.5 | 9.6 | 0.00 | 0.00 | 0.00 | 71 | 1022.2 |
| 20260507124545 | 41 | 5 | 3.5 | 9.6 | 0.00 | 0.00 | 0.00 | 71 | 1022.2 |
| 20260507124034 | 41 | 26 | 2.6 | 8.7 | 0.00 | 0.00 | 0.00 | 71 | 1022.1 |
| 20260507123534 | 40 | 40 | 3.5 | 8.7 | 0.00 | 0.00 | 0.00 | 72 | 1022.1 |
| 20260507123045 | 40 | 338 | 2.6 | 7.0 | 0.00 | 0.00 | 0.00 | 71 | 1022.0 |
| 20260507122534 | 40 | 24 | 1.7 | 4.3 | 0.00 | 0.00 | 0.00 | 71 | 1022.1 |
| 20260507122035 | 39 | 310 | 1.7 | 4.3 | 0.00 | 0.00 | 0.00 | 71 | 1022.0 |
| 20260507121549 | 39 | 290 | 0.9 | 4.3 | 0.00 | 0.00 | 0.00 | 70 | 1021.9 |
| 20260507121037 | 39 | 303 | 0.9 | 4.3 | 0.00 | 0.00 | 0.00 | 70 | 1021.8 |
| 20260507120532 | 40 | 46 | 0.0 | 2.6 | 0.00 | 0.00 | 0.00 | 70 | 1021.9 |
| 20260507120059 | 40 | 319 | 0.9 | 4.3 | 0.00 | 0.00 | 0.00 | 69 | 1021.9 |
| 20260507115534 | 40 | 318 | 0.9 | 4.3 | 0.00 | 0.00 | 0.00 | 69 | 1021.9 |
| 20260507115034 | 40 | 0 | 0.9 | 3.5 | 0.00 | 0.00 | 0.00 | 69 | 1021.9 |
| 20260507114627 | 40 | 271 | 0.9 | 3.5 | 0.00 | 0.00 | 0.00 | 68 | 1021.8 |
| 20260507114035 | 40 | 322 | 0.0 | 2.6 | 0.00 | 0.00 | 0.00 | 67 | 1021.7 |
| 20260507113533 | 40 | 0 | 0.0 | 2.6 | 0.00 | 0.00 | 0.00 | 67 | 1021.9 |
| 20260507113046 | 40 | 304 | 0.9 | 2.6 | 0.00 | 0.00 | 0.00 | 66 | 1021.8 |
| 20260507112535 | 40 | 328 | 0.9 | 3.5 | 0.00 | 0.00 | 0.00 | 65 | 1021.9 |
| 20260507112033 | 40 | 311 | 0.9 | 3.5 | 0.00 | 0.00 | 0.00 | 64 | 1021.9 |
| 20260507111547 | 40 | 333 | 0.9 | 3.5 | 0.00 | 0.00 | 0.00 | 63 | 1021.9 |
| 20260507111034 | 40 | 24 | 0.9 | 3.5 | 0.00 | 0.00 | 0.00 | 63 | 1022.0 |
| 20260507110535 | 41 | 78 | 1.7 | 3.5 | 0.00 | 0.00 | 0.00 | 62 | 1021.9 |
| 20260507110042 | 41 | 58 | 0.9 | 3.5 | 0.00 | 0.00 | 0.00 | 61 | 1021.9 |
| 20260507105533 | 41 | 326 | 0.9 | 3.5 | 0.00 | 0.00 | 0.00 | 60 | 1021.9 |
| 20260507105037 | 41 | 44 | 1.7 | 3.5 | 0.00 | 0.00 | 0.00 | 59 | 1021.9 |
| 20260507104543 | 41 | 27 | 0.9 | 2.6 | 0.00 | 0.00 | 0.00 | 57 | 1021.9 |
| 20260507104032 | 42 | 307 | 0.0 | 2.6 | 0.00 | 0.00 | 0.00 | 57 | 1021.9 |
| 20260507103533 | 42 | 34 | 0.0 | 4.3 | 0.00 | 0.00 | 0.00 | 55 | 1021.8 |
| 20260507103047 | 42 | 291 | 0.9 | 5.2 | 0.00 | 0.00 | 0.00 | 54 | 1021.7 |
| 20260507102535 | 42 | 327 | 1.7 | 5.2 | 0.00 | 0.00 | 0.00 | 54 | 1021.7 |
| 20260507102045 | 42 | 49 | 1.7 | 4.3 | 0.00 | 0.00 | 0.00 | 53 | 1021.7 |
| 20260507101546 | 42 | 357 | 1.7 | 4.3 | 0.00 | 0.00 | 0.00 | 52 | 1021.7 |
| 20260507101031 | 42 | 335 | 0.9 | 3.5 | 0.00 | 0.00 | 0.00 | 51 | 1021.7 |
| 20260507100534 | 41 | 330 | 0.9 | 3.5 | 0.00 | 0.00 | 0.00 | 51 | 1021.6 |
| 20260507100048 | 41 | 334 | 0.0 | 2.6 | 0.00 | 0.00 | 0.00 | 49 | 1021.7 |
| 20260507095535 | 41 | 295 | 0.0 | 1.7 | 0.00 | 0.00 | 0.00 | 47 | 1021.7 |
| 20260507095034 | 40 | 0 | 0.0 | 0.9 | 0.00 | 0.00 | 0.00 | 46 | 1021.6 |
| 20260507094542 | 41 | 0 | 0.0 | 0.9 | 0.00 | 0.00 | 0.00 | 45 | 1021.7 |
| 20260507094034 | 41 | 0 | 0.0 | 0.9 | 0.00 | 0.00 | 0.00 | 43 | 1021.7 |
| 20260507093534 | 41 | 0 | 0.0 | 0.0 | 0.00 | 0.00 | 0.00 | 42 | 1021.6 |
| 20260507093048 | 42 | 0 | 0.0 | 0.0 | 0.00 | 0.00 | 0.00 | 40 | 1021.6 |
| 20260507092534 | 43 | 0 | 0.0 | 0.0 | 0.00 | 0.00 | 0.00 | 39 | 1021.6 |
| 20260507092034 | 43 | 0 | 0.0 | 1.7 | 0.00 | 0.00 | 0.00 | 38 | 1021.7 |
| 20260507091547 | 44 | 0 | 0.0 | 1.7 | 0.00 | 0.00 | 0.00 | 37 | 1021.6 |
| 20260507091035 | 44 | 6 | 0.0 | 4.3 | 0.00 | 0.00 | 0.00 | 36 | 1021.6 |
| 20260507090535 | 44 | 33 | 0.9 | 4.3 | 0.00 | 0.00 | 0.00 | 36 | 1021.5 |
| 20260507090048 | 45 | 311 | 0.9 | 3.5 | 0.00 | 0.00 | 0.00 | 36 | 1021.5 |
| 20260507085536 | 45 | 63 | 0.9 | 3.5 | 0.00 | 0.00 | 0.00 | 36 | 1021.5 |
| 20260507085035 | 45 | 0 | 0.9 | 6.1 | 0.00 | 0.00 | 0.00 | 35 | 1021.5 |
| 20260507084554 | 46 | 340 | 1.7 | 6.1 | 0.00 | 0.00 | 0.00 | 35 | 1021.5 |
| 20260507084034 | 46 | 317 | 0.9 | 5.2 | 0.00 | 0.00 | 0.00 | 35 | 1021.4 |
| 20260507083535 | 45 | 311 | 1.7 | 4.3 | 0.00 | 0.00 | 0.00 | 35 | 1021.4 |
| 20260507083044 | 45 | 345 | 0.9 | 4.3 | 0.00 | 0.00 | 0.00 | 35 | 1021.4 |
| 20260507082533 | 45 | 353 | 0.9 | 4.3 | 0.00 | 0.00 | 0.00 | 36 | 1021.3 |
| 20260507082033 | 45 | 330 | 0.9 | 3.5 | 0.00 | 0.00 | 0.00 | 36 | 1021.3 |
| 20260507081543 | 46 | 356 | 0.9 | 2.6 | 0.00 | 0.00 | 0.00 | 35 | 1021.4 |
| 20260507081032 | 46 | 4 | 0.9 | 4.3 | 0.00 | 0.00 | 0.00 | 34 | 1021.3 |
| 20260507080535 | 46 | 11 | 1.7 | 5.2 | 0.00 | 0.00 | 0.00 | 34 | 1021.2 |
| 20260507080105 | 46 | 33 | 1.7 | 6.1 | 0.00 | 0.00 | 0.00 | 34 | 1021.2 |
| 20260507075534 | 46 | 32 | 2.6 | 6.1 | 0.00 | 0.00 | 0.00 | 35 | 1021.0 |